SCP
0 0 0 0 0 0 0 0 0 0 0 0 0 0 0 0 0 0 0 0 0 0 0 0 0 0 0 0 0 0 0 0 0 -0 -0 0 0 0 -0 0 0 0 0 0 0 0 0
0 0 0 0 0 0 0 0 0 0 0 0 0 0 0 0 0 0 0 0 0 0 0 0 0 0 0 0 0 0 0 0 0 0 0 0 0 0 0 0 0 0 0 0 0 0 0
0 0 0 0 0 0 0 0 0 0 0 0 0 0 0 0 0 0 0 0 0 0 0 0 0 0 0 0 0 0 0 0 0 0 0 0 0 0 0 0 0 0 0 0 0 0 0
0 0 0 0 0 0 0 0 0 0 0 0 0 0 0 0 0 0 0 0 0 0 0 0 0 0 0 0 0 0 0 0 0 0 0 0 0 0 0 0 0 0 0 0 0 0 0
0 0 0 0 0 0 0 0 0 0 0 0 0 0 0 0 0 0 0 0 0 0 0 0 0 0 0 0 0 0 0 0 0 0 0 0 0 0 0 0 0 0 0 0 0 0 0
0 0 0 0 0 0 0 0 0 0 0 0 0 0 0 0 0 0 0 0 0 0 0 0 0 0 0 0 0 0 0 0 0 0 0 0 0 0 0 0 0 0 0 0 0 0 0
0 0 0 0 0 0 0 0 0 0 0 0 0 0 0 0 0 0 0 0 0 0 0 0 0 0 0 0 0 0 0 0 0 0 0 0 0 0 0 0 0 0 0 0 0 0 0
0 0 0 0 0 0 0 0 0 0 0 0 0 0 0 0 0 0 0 0 0 0 0 0 0 0 0 0 0 0 0 0 0 0 0 0 0 0 0 0 0 0 0 0 0 0 0
0 0 0 0 0 0 0 0 0 0 0 0 0 0 0 0 0 0 0 0 0 0 0 0 0 0 0 0 0 0 0 0 0 0 0 0 0 0 0 0 0 0 0 0 0 0 0
0 0 0 0 0 0 0 0 0 0 0 0 0 0 0 0 0 0 0 0 0 0 0 0 0 0 0 0 0 0 0 0 0 0 0 0 0 0 0 0 0 0 0 0 0 0 0
0 0 0 0 0 0 0 0 0 0 0 0 0 0 0 0 0 0 0 0 0 0 0 0 0 0 0 0 0 0 0 0 0 0 0 0 0 0 0 0 0 0 0 0 0 0 0
0 0 0 0 0 0 0 0 0 0 0 0 0 0 0 0 0 0 0 0 0 0 0 0 0 0 0 0 0 0 0 0 0 0 0 0 0 0 0 0 0 0 0 0 0 0 0
0 0 0 0 0 0 0 0 0 0 0 0 0 0 0 0 0 0 0 0 0 0 0 0 0 0 0 0 0 0 0 0 0 0 0 0 0 0 0 0 0 0 0 0 0 0 0
0 0 0 0 0 0 0 0 0 0 0 0 0 0 0 0 0 0 0 0 0 0 0 0 0 0 0 0 0 0 0 0 0 0 0 0 0 0 0 0 0 0 0 0 0 0 0
0 0 0 0 0 0 0 0 0 0 0 0 0 0 0 0 0 0 0 0 0 0 0 0 0 0 0 0 0 0 0 0 0 0 0 0 0 0 0 0 0 0 0 0 0 0 0
0 0 0 0 0 0 0 0 0 0 0 0 0 0 0 0 0 0 0 0 0 0 0 0 0 0 0 0 0 0 0 0 0 0 0 0 0 0 0 0 0 0 0 0 0 0 0
0 0 0 0 0 0 0 0 0 0 0 0 0 0 0 0 0 0 0 0 0 0 0 0 0 0 0 0 0 0 0 0 0 0 0 0 0 0 0 0 0 0 0 0 0 0 0
0 0 0 0 0 0 0 0 0 0 0 0 0 0 0 0 0 0 0 0 0 0 0 0 0 0 0 0 0 0 0 0 0 0 0 0 0 0 0 0 0 0 0 0 0 0 0
0 0 0 0 0 0 0 0 0 0 0 0 0 0 0 0 0 0 0 0 0 0 0 0 0 0 0 0 0 0 0 0 0 0 0 0 0 0 0 0 0 0 0 0 0 0 0
0 0 0 0 0 0 0 0 0 0 -0 0 0 0 0 0 0 0 0 0 0 0 0 0 0 0 0 0 0 0 0 0 0 0 0 0 0 0 0 0 0 0 0 0 0 0 0
0 0 0 0 0 0 0 0 0 0 0 0 0 0 0 0 0 0 0 0 0 0 0 0 0 0 0 0 0 0 0 0 0 0 0 0 0 0 0 0 0 0 0 0 0 0 0
0 0 0 0 0 0 0 0 0 0 0 0 0 0 0 0 0 0 0 0 0 0 0 0 0 0 0 0 0 0 0 0 0 0 0 0 0 0 0 0 0 0 0 0 0 0 0
0 0 0 0 0 0 0 0 0 0 0 0 0 0 0 0 0 0 0 0 0 0 0 0 0 0 0 0 0 0 0 0 0 0 0 0 0 0 0 0 0 0 0 0 0 0 0
0 0 0 0 0 0 0 0 0 0 0 0 0 0 0 0 0 0 0 0 0 0 0 0 0 0 0 0 0 0 0 0 0 0 0 0 0 0 0 0 0 0 0 0 0 0 0
0 0 0 0 0 0 0 0 0 0 0 0 0 0 0 0 0 0 0 0 0 0 0 0 0 0 0 0 0 0 0 0 0 0 0 0 0 0 0 0 0 0 0 0 0 0 0
0 0 0 0 0 0 0 0 0 0 0 0 0 0 0 0 0 0 0 0 0 0 0 0 0 0 0 0 0 0 0 0 0 0 0 0 0 0 0 0 0 0 0 0 0 0 0
0 0 0 0 0 0 0 0 0 0 0 0 0 0 0 0 0 0 0 0 0 0 0 0 0 0 0 0 0 0 0 0 0 0 0 0 0 0 0 0 0 0 0 0 0 0 0
0 0 0 0 0 0 0 0 0 0 0 0 0 0 0 0 0 0 0 0 0 0 0 0 0 0 0 0 0 0 0 0 0 0 0 0 0 0 0 0 0 0 0 0 0 0 0
0 0 0 0 0 0 0 0 0 0 0 0 0 0 0 0 0 0 0 0 0 0 0 0 0 0 0 0 0 0 0 0 0 0 0 0 0 0 0 0 0 0 0 0 0 0 0
Wind_Speed_500mb
51 48 45 43 42 39 37 35 33 31 30 28 27 27 28 27 26 26 26 27 27 30 31 30 33 34 26 14 8 14 10 8 2 2 9 12 15 13 22 9 10 18 15 11 14 18 24
53 46 41 37 36 39 37 36 34 33 31 30 29 28 28 30 30 30 29 28 29 31 31 32 30 30 20 24 12 20 7 3 4 8 9 12 11 11 20 19 17 9 18 25 25 26 25
62 53 44 40 38 33 32 32 32 32 32 31 31 30 30 31 31 32 32 31 30 31 32 30 29 29 18 21 9 8 9 5 6 8 12 11 13 16 15 23 12 21 22 26 28 6 5
66 55 50 45 40 38 36 30 28 28 29 29 30 30 30 31 31 33 33 32 30 30 31 29 26 22 15 23 14 14 13 11 9 9 9 11 13 20 20 25 29 29 27 26 20 12 8
76 76 70 54 46 40 34 32 31 33 28 25 22 23 25 27 29 31 32 31 29 29 28 28 20 10 12 11 6 12 20 17 16 14 14 11 12 22 20 23 24 28 22 10 5 13 5
68 73 73 65 57 48 44 37 35 35 36 33 27 25 22 21 22 24 26 25 23 24 24 21 21 15 15 5 6 7 9 19 17 16 18 16 17 19 22 21 22 23 11 13 16 18 24
48 45 70 65 62 54 46 46 36 27 30 33 31 33 27 21 16 15 15 13 17 11 16 24 7 19 8 9 13 11 14 16 22 22 24 30 17 24 21 22 25 20 23 24 26 23 12
56 56 45 53 66 57 52 45 43 29 21 19 19 22 26 24 14 9 10 5 8 8 19 25 33 37 34 21 17 25 26 23 28 28 29 20 26 23 15 13 20 24 27 29 22 7 5
52 53 55 54 54 56 52 53 47 40 32 27 21 15 20 15 12 4 6 6 9 10 15 22 28 24 22 21 22 23 30 38 33 28 32 28 26 11 8 25 24 23 24 29 25 22 23
53 55 61 68 67 58 50 52 49 44 36 34 28 25 19 12 5 6 7 0 3 4 11 19 13 9 11 14 13 19 26 36 23 30 30 24 29 27 24 30 25 29 26 20 27 27 25
62 59 56 59 61 62 64 66 56 49 44 40 41 44 23 9 4 5 7 4 6 2 11 10 12 6 8 17 4 13 15 26 35 27 15 23 16 19 24 23 13 24 7 19 23 27 30
65 60 53 45 44 54 60 63 62 61 61 49 35 30 43 42 25 15 11 3 6 12 21 10 10 10 12 18 10 9 7 11 13 28 26 32 28 14 25 22 17 19 18 28 25 25 25
65 61 58 51 44 38 45 52 55 56 59 49 39 29 30 24 23 19 14 3 11 18 12 15 9 12 20 13 13 10 14 17 14 14 24 26 27 26 16 22 27 26 23 19 22 18 23
65 64 63 59 52 46 39 41 40 45 47 58 43 37 30 28 19 13 14 4 12 15 41 9 5 13 19 17 11 14 11 17 13 14 15 12 12 11 6 11 17 6 16 17 23 22 28
71 64 61 57 53 49 43 36 33 35 37 38 45 31 22 33 22 23 20 7 9 9 21 16 15 18 18 14 9 16 14 3 8 7 9 3 4 12 6 5 9 1 9 14 16 26 23
73 69 66 61 58 53 47 43 32 27 33 34 26 21 27 28 28 26 9 6 9 13 11 10 23 12 22 19 16 13 20 6 2 7 11 6 10 8 9 11 5 14 12 13 3 10 14
74 72 67 66 63 57 51 46 38 31 28 30 27 17 22 36 35 20 12 14 14 20 9 11 20 17 11 7 18 16 7 17 9 5 6 10 8 7 7 15 5 17 5 5 9 5 7
76 72 73 69 65 59 54 49 44 37 32 40 31 14 25 44 27 17 22 26 29 28 21 17 14 14 16 14 13 8 1 17 16 12 11 11 9 16 4 5 7 11 10 5 5 6 5
82 75 70 68 66 61 54 52 50 47 42 35 31 20 21 49 21 21 25 26 27 25 35 25 17 14 11 14 16 10 4 7 11 10 13 7 7 13 9 5 3 8 5 10 11 5 17
79 72 67 65 65 65 62 58 54 52 48 40 24 6 13 41 55 38 35 27 26 13 22 23 11 8 8 12 6 6 7 7 11 12 9 7 14 16 17 11 9 17 20 22 20 8 18
73 71 70 72 71 68 64 58 56 54 58 44 30 14 24 12 34 37 40 25 34 21 15 19 20 23 24 11 19 21 20 13 13 2 5 9 15 21 25 25 24 26 29 30 31 33 31
69 73 73 73 72 69 66 63 62 59 62 46 22 8 13 17 44 43 27 41 42 36 25 16 24 33 24 22 21 13 21 23 13 9 9 6 12 12 7 26 31 30 38 36 36 36 35
78 76 75 74 73 72 69 67 63 62 70 47 40 27 23 16 37 31 33 34 44 43 37 34 35 21 21 31 15 14 7 5 4 11 12 8 8 8 21 20 13 22 31 31 28 24 20
81 78 75 72 71 72 72 71 72 71 77 33 40 23 21 9 23 30 42 45 31 49 30 30 31 28 20 10 8 4 9 20 27 27 28 19 12 8 7 16 11 21 3 9 12 14 17
77 78 77 74 71 71 72 74 74 74 73 54 32 39 29 14 25 29 37 43 44 25 43 25 17 11 20 15 6 10 12 13 30 32 29 27 12 4 7 18 22 29 15 15 10 18 8
79 77 74 74 72 69 71 72 74 73 73 75 24 35 20 26 20 29 32 35 27 27 21 33 15 13 17 10 9 11 13 17 12 10 8 6 7 9 10 12 10 4 11 9 8 19 17
82 80 77 74 75 74 72 72 73 74 74 69 57 46 23 15 20 26 22 27 34 36 24 35 21 16 22 12 12 13 15 13 13 15 13 8 5 21 21 10 15 21 16 4 6 4 4
84 83 80 77 76 74 72 74 76 74 71 70 59 48 41 25 17 20 22 13 28 24 14 16 21 15 19 14 12 7 10 15 26 29 24 20 15 11 13 9 17 13 13 11 8 2 10
87 85 81 79 77 76 72 73 74 72 68 68 46 62 54 19 10 29 27 25 15 1 11 24 18 26 24 13 12 9 12 11 22 21 29 21 21 11 14 11 11 11 4 6 9 16 15
Wind_Direction_500mb
215 214 220 223 223 223 225 231 236 243 251 257 264 274 282 286 292 296 302 310 314 316 320 326 329 334 347 297 318 295 297 327 329 248 237 243 265 283 268 295 283 251 281 278 270 251 252
207 204 212 216 224 227 227 229 233 238 246 252 258 264 273 280 285 289 293 298 303 308 313 320 324 329 328 289 284 289 267 346 239 225 248 255 284 300 288 278 274 350 277 275 266 263 259
209 209 210 216 219 225 227 231 235 237 243 249 254 260 266 275 279 283 287 291 295 298 305 309 315 322 301 276 276 252 235 240 222 229 245 257 275 273 326 269 255 277 268 272 244 253 181
207 209 216 220 222 223 227 229 236 239 243 248 255 260 265 270 277 281 285 286 288 290 293 299 305 313 268 264 255 244 239 248 236 228 242 261 269 283 275 288 273 254 257 273 135 202 146
222 226 221 218 219 223 226 235 234 238 237 239 248 259 265 272 278 283 287 286 288 286 286 291 302 286 271 275 259 238 226 229 236 232 240 254 268 266 269 260 266 223 272 271 236 209 165
216 217 223 222 224 228 230 237 239 242 238 237 241 251 261 273 281 287 293 295 293 287 280 282 266 264 234 252 201 220 229 223 228 227 237 238 241 246 236 249 266 342 311 298 275 147 219
210 206 219 216 220 221 226 232 232 233 239 237 248 255 255 258 277 296 310 330 270 238 237 244 317 265 260 258 262 237 225 219 228 234 239 212 250 244 281 332 325 302 294 282 282 287 269
218 218 213 217 222 228 224 224 218 217 229 239 245 255 251 245 262 299 7 359 19 317 297 265 256 257 259 262 269 245 225 223 210 234 221 238 247 268 354 310 283 275 273 273 282 323 284
211 209 207 206 202 206 206 216 220 219 230 235 234 261 258 240 243 239 56 45 354 324 264 269 239 247 248 220 244 254 212 229 247 242 252 241 275 122 266 281 273 266 266 279 286 299 260
219 222 219 218 214 211 208 205 205 214 213 225 232 261 250 213 214 193 170 324 342 320 269 220 198 213 195 220 249 233 231 233 241 253 263 259 268 271 267 262 263 272 262 249 266 271 274
223 218 215 218 222 223 219 216 215 215 219 236 240 245 221 174 202 196 220 161 355 267 269 64 138 155 196 217 57 174 215 228 239 227 253 231 209 228 243 261 314 277 328 262 277 278 279
213 211 211 209 215 218 217 220 223 222 227 231 227 231 228 244 254 225 195 149 304 225 235 147 129 186 198 211 217 124 154 208 252 250 236 254 273 257 275 294 262 283 263 258 244 255 258
205 206 207 201 208 209 213 214 216 217 218 217 214 210 211 199 223 215 213 183 219 234 121 169 168 186 217 182 202 211 181 196 216 203 216 230 236 234 235 270 244 243 262 277 276 244 253
207 204 205 204 207 207 208 208 205 209 212 214 213 211 202 195 194 185 186 193 219 331 238 106 209 199 212 179 196 196 207 229 220 271 281 262 179 174 136 271 331 235 277 263 279 297 306
200 200 201 203 200 198 196 188 187 198 201 201 210 207 210 215 182 174 191 199 207 227 297 223 200 221 196 196 262 200 214 352 15 293 276 302 170 116 50 299 298 335 251 359 305 279 269
201 199 201 204 198 194 189 185 182 187 197 190 175 201 216 207 191 184 200 195 231 240 296 274 224 236 215 194 209 209 179 81 57 8 301 23 266 174 121 269 186 298 2 308 239 305 300
201 199 198 196 191 187 185 187 187 191 183 175 175 195 207 196 188 197 211 208 225 205 272 272 235 217 248 219 243 227 147 89 12 25 279 279 252 156 197 222 128 241 166 357 321 329 297
195 190 190 190 189 191 192 194 189 190 175 166 175 209 185 176 184 202 224 195 221 213 204 247 274 274 197 189 283 280 39 44 5 333 293 56 307 263 119 52 356 312 313 281 294 288 265
191 191 195 195 203 194 197 196 196 193 185 171 191 193 170 184 204 216 220 218 240 237 197 192 214 252 233 182 199 251 213 58 25 22 9 358 266 254 253 211 193 227 219 306 295 358 266
192 195 193 195 192 191 197 197 195 195 184 186 197 154 172 201 224 208 208 212 206 213 265 209 214 208 206 187 255 175 239 112 50 53 23 294 268 271 279 303 218 268 284 281 261 220 264
188 194 198 199 196 194 195 193 193 190 180 187 210 205 190 186 215 223 206 203 208 182 215 235 209 229 218 218 244 240 252 200 177 162 259 316 266 279 295 308 300 287 278 271 265 245 252
191 196 200 200 199 196 195 198 193 188 181 197 207 185 205 204 204 213 216 208 214 203 175 204 227 209 203 229 222 252 262 250 221 189 242 209 273 278 294 280 267 271 267 264 260 260 269
199 198 199 201 201 197 194 194 195 192 184 196 205 204 207 214 178 210 212 218 218 204 202 204 205 230 233 234 294 327 234 333 286 265 265 275 261 249 269 266 295 284 260 249 256 264 260
197 201 202 202 201 199 198 196 195 195 196 191 202 197 224 208 211 199 211 216 211 222 224 218 219 216 209 167 124 201 251 255 256 250 249 237 234 254 257 278 245 242 306 337 302 294 295
198 199 200 199 201 200 200 198 197 198 201 202 197 205 217 223 214 219 211 207 219 193 221 204 196 239 174 162 196 231 225 247 241 240 232 227 247 247 242 236 265 275 271 265 266 284 46
200 199 199 199 199 198 199 198 199 200 202 206 199 191 232 227 216 223 209 206 203 211 186 197 173 152 149 170 193 216 216 214 180 140 329 37 244 203 211 246 240 79 136 64 332 266 93
204 204 205 204 203 202 203 203 202 202 204 207 209 199 208 227 238 214 220 214 207 200 211 200 167 184 193 204 217 216 224 243 207 204 167 171 197 221 230 256 266 272 125 154 215 70 122
207 207 207 207 203 201 204 204 203 204 203 205 212 203 207 218 235 222 245 234 232 200 190 184 190 209 188 212 207 194 243 234 238 240 175 185 194 188 215 234 257 233 155 221 76 61 302
207 208 208 208 206 201 201 201 200 200 201 202 210 211 210 211 249 226 225 241 228 251 272 187 200 174 197 204 210 199 218 232 226 246 235 219 223 209 209 219 146 181 322 332 303 300 300
Wind_Speed_850mb
51 48 45 43 42 39 37 35 33 31 30 28 27 27 28 27 26 26 26 27 27 30 31 30 33 34 26 14 8 14 10 8 2 2 9 12 15 13 22 9 10 18 15 11 14 18 24
53 46 41 37 36 39 37 36 34 33 31 30 29 28 28 30 30 30 29 28 29 31 31 32 30 30 20 24 12 20 7 3 4 8 9 12 11 11 20 19 17 9 18 25 25 26 25
62 53 44 40 38 33 32 32 32 32 32 31 31 30 30 31 31 32 32 31 30 31 32 30 29 29 18 21 9 8 9 5 6 8 12 11 13 16 15 23 12 21 22 26 28 6 5
66 55 50 45 40 38 36 30 28 28 29 29 30 30 30 31 31 33 33 32 30 30 31 29 26 22 15 23 14 14 13 11 9 9 9 11 13 20 20 25 29 29 27 26 20 12 8
76 76 70 54 46 40 34 32 31 33 28 25 22 23 25 27 29 31 32 31 29 29 28 28 20 10 12 11 6 12 20 17 16 14 14 11 12 22 20 23 24 28 22 10 5 13 5
68 73 73 65 57 48 44 37 35 35 36 33 27 25 22 21 22 24 26 25 23 24 24 21 21 15 15 5 6 7 9 19 17 16 18 16 17 19 22 21 22 23 11 13 16 18 24
48 45 70 65 62 54 46 46 36 27 30 33 31 33 27 21 16 15 15 13 17 11 16 24 7 19 8 9 13 11 14 16 22 22 24 30 17 24 21 22 25 20 23 24 26 23 12
56 56 45 53 66 57 52 45 43 29 21 19 19 22 26 24 14 9 10 5 8 8 19 25 33 37 34 21 17 25 26 23 28 28 29 20 26 23 15 13 20 24 27 29 22 7 5
52 53 55 54 54 56 52 53 47 40 32 27 21 15 20 15 12 4 6 6 9 10 15 22 28 24 22 21 22 23 30 38 33 28 32 28 26 11 8 25 24 23 24 29 25 22 23
53 55 61 68 67 58 50 52 49 44 36 34 28 25 19 12 5 6 7 0 3 4 11 19 13 9 11 14 13 19 26 36 23 30 30 24 29 27 24 30 25 29 26 20 27 27 25
62 59 56 59 61 62 64 66 56 49 44 40 41 44 23 9 4 5 7 4 6 2 11 10 12 6 8 17 4 13 15 26 35 27 15 23 16 19 24 23 13 24 7 19 23 27 30
65 60 53 45 44 54 60 63 62 61 61 49 35 30 43 42 25 15 11 3 6 12 21 10 10 10 12 18 10 9 7 11 13 28 26 32 28 14 25 22 17 19 18 28 25 25 25
65 61 58 51 44 38 45 52 55 56 59 49 39 29 30 24 23 19 14 3 11 18 12 15 9 12 20 13 13 10 14 17 14 14 24 26 27 26 16 22 27 26 23 19 22 18 23
65 64 63 59 52 46 39 41 40 45 47 58 43 37 30 28 19 13 14 4 12 15 41 9 5 13 19 17 11 14 11 17 13 14 15 12 12 11 6 11 17 6 16 17 23 22 28
71 64 61 57 53 49 43 36 33 35 37 38 45 31 22 33 22 23 20 7 9 9 21 16 15 18 18 14 9 16 14 3 8 7 9 3 4 12 6 5 9 1 9 14 16 26 23
73 69 66 61 58 53 47 43 32 27 33 34 26 21 27 28 28 26 9 6 9 13 11 10 23 12 22 19 16 13 20 6 2 7 11 6 10 8 9 11 5 14 12 13 3 10 14
74 72 67 66 63 57 51 46 38 31 28 30 27 17 22 36 35 20 12 14 14 20 9 11 20 17 11 7 18 16 7 17 9 5 6 10 8 7 7 15 5 17 5 5 9 5 7
76 72 73 69 65 59 54 49 44 37 32 40 31 14 25 44 27 17 22 26 29 28 21 17 14 14 16 14 13 8 1 17 16 12 11 11 9 16 4 5 7 11 10 5 5 6 5
82 75 70 68 66 61 54 52 50 47 42 35 31 20 21 49 21 21 25 26 27 25 35 25 17 14 11 14 16 10 4 7 11 10 13 7 7 13 9 5 3 8 5 10 11 5 17
79 72 67 65 65 65 62 58 54 52 48 40 24 6 13 41 55 38 35 27 26 13 22 23 11 8 8 12 6 6 7 7 11 12 9 7 14 16 17 11 9 17 20 22 20 8 18
73 71 70 72 71 68 64 58 56 54 58 44 30 14 24 12 34 37 40 25 34 21 15 19 20 23 24 11 19 21 20 13 13 2 5 9 15 21 25 25 24 26 29 30 31 33 31
69 73 73 73 72 69 66 63 62 59 62 46 22 8 13 17 44 43 27 41 42 36 25 16 24 33 24 22 21 13 21 23 13 9 9 6 12 12 7 26 31 30 38 36 36 36 35
78 76 75 74 73 72 69 67 63 62 70 47 40 27 23 16 37 31 33 34 44 43 37 34 35 21 21 31 15 14 7 5 4 11 12 8 8 8 21 20 13 22 31 31 28 24 20
81 78 75 72 71 72 72 71 72 71 77 33 40 23 21 9 23 30 42 45 31 49 30 30 31 28 20 10 8 4 9 20 27 27 28 19 12 8 7 16 11 21 3 9 12 14 17
77 78 77 74 71 71 72 74 74 74 73 54 32 39 29 14 25 29 37 43 44 25 43 25 17 11 20 15 6 10 12 13 30 32 29 27 12 4 7 18 22 29 15 15 10 18 8
79 77 74 74 72 69 71 72 74 73 73 75 24 35 20 26 20 29 32 35 27 27 21 33 15 13 17 10 9 11 13 17 12 10 8 6 7 9 10 12 10 4 11 9 8 19 17
82 80 77 74 75 74 72 72 73 74 74 69 57 46 23 15 20 26 22 27 34 36 24 35 21 16 22 12 12 13 15 13 13 15 13 8 5 21 21 10 15 21 16 4 6 4 4
84 83 80 77 76 74 72 74 76 74 71 70 59 48 41 25 17 20 22 13 28 24 14 16 21 15 19 14 12 7 10 15 26 29 24 20 15 11 13 9 17 13 13 11 8 2 10
87 85 81 79 77 76 72 73 74 72 68 68 46 62 54 19 10 29 27 25 15 1 11 24 18 26 24 13 12 9 12 11 22 21 29 21 21 11 14 11 11 11 4 6 9 16 15
Wind_Direction_850mb
215 214 220 223 223 223 225 231 236 243 251 257 264 274 282 286 292 296 302 310 314 316 320 326 329 334 347 297 318 295 297 327 329 248 237 243 265 283 268 295 283 251 281 278 270 251 252
207 204 212 216 224 227 227 229 233 238 246 252 258 264 273 280 285 289 293 298 303 308 313 320 324 329 328 289 284 289 267 346 239 225 248 255 284 300 288 278 274 350 277 275 266 263 259
209 209 210 216 219 225 227 231 235 237 243 249 254 260 266 275 279 283 287 291 295 298 305 309 315 322 301 276 276 252 235 240 222 229 245 257 275 273 326 269 255 277 268 272 244 253 181
207 209 216 220 222 223 227 229 236 239 243 248 255 260 265 270 277 281 285 286 288 290 293 299 305 313 268 264 255 244 239 248 236 228 242 261 269 283 275 288 273 254 257 273 135 202 146
222 226 221 218 219 223 226 235 234 238 237 239 248 259 265 272 278 283 287 286 288 286 286 291 302 286 271 275 259 238 226 229 236 232 240 254 268 266 269 260 266 223 272 271 236 209 165
216 217 223 222 224 228 230 237 239 242 238 237 241 251 261 273 281 287 293 295 293 287 280 282 266 264 234 252 201 220 229 223 228 227 237 238 241 246 236 249 266 342 311 298 275 147 219
210 206 219 216 220 221 226 232 232 233 239 237 248 255 255 258 277 296 310 330 270 238 237 244 317 265 260 258 262 237 225 219 228 234 239 212 250 244 281 332 325 302 294 282 282 287 269
218 218 213 217 222 228 224 224 218 217 229 239 245 255 251 245 262 299 7 359 19 317 297 265 256 257 259 262 269 245 225 223 210 234 221 238 247 268 354 310 283 275 273 273 282 323 284
211 209 207 206 202 206 206 216 220 219 230 235 234 261 258 240 243 239 56 45 354 324 264 269 239 247 248 220 244 254 212 229 247 242 252 241 275 122 266 281 273 266 266 279 286 299 260
219 222 219 218 214 211 208 205 205 214 213 225 232 261 250 213 214 193 170 324 342 320 269 220 198 213 195 220 249 233 231 233 241 253 263 259 268 271 267 262 263 272 262 249 266 271 274
223 218 215 218 222 223 219 216 215 215 219 236 240 245 221 174 202 196 220 161 355 267 269 64 138 155 196 217 57 174 215 228 239 227 253 231 209 228 243 261 314 277 328 262 277 278 279
213 211 211 209 215 218 217 220 223 222 227 231 227 231 228 244 254 225 195 149 304 225 235 147 129 186 198 211 217 124 154 208 252 250 236 254 273 257 275 294 262 283 263 258 244 255 258
205 206 207 201 208 209 213 214 216 217 218 217 214 210 211 199 223 215 213 183 219 234 121 169 168 186 217 182 202 211 181 196 216 203 216 230 236 234 235 270 244 243 262 277 276 244 253
207 204 205 204 207 207 208 208 205 209 212 214 213 211 202 195 194 185 186 193 219 331 238 106 209 199 212 179 196 196 207 229 220 271 281 262 179 174 136 271 331 235 277 263 279 297 306
200 200 201 203 200 198 196 188 187 198 201 201 210 207 210 215 182 174 191 199 207 227 297 223 200 221 196 196 262 200 214 352 15 293 276 302 170 116 50 299 298 335 251 359 305 279 269
201 199 201 204 198 194 189 185 182 187 197 190 175 201 216 207 191 184 200 195 231 240 296 274 224 236 215 194 209 209 179 81 57 8 301 23 266 174 121 269 186 298 2 308 239 305 300
201 199 198 196 191 187 185 187 187 191 183 175 175 195 207 196 188 197 211 208 225 205 272 272 235 217 248 219 243 227 147 89 12 25 279 279 252 156 197 222 128 241 166 357 321 329 297
195 190 190 190 189 191 192 194 189 190 175 166 175 209 185 176 184 202 224 195 221 213 204 247 274 274 197 189 283 280 39 44 5 333 293 56 307 263 119 52 356 312 313 281 294 288 265
191 191 195 195 203 194 197 196 196 193 185 171 191 193 170 184 204 216 220 218 240 237 197 192 214 252 233 182 199 251 213 58 25 22 9 358 266 254 253 211 193 227 219 306 295 358 266
192 195 193 195 192 191 197 197 195 195 184 186 197 154 172 201 224 208 208 212 206 213 265 209 214 208 206 187 255 175 239 112 50 53 23 294 268 271 279 303 218 268 284 281 261 220 264
188 194 198 199 196 194 195 193 193 190 180 187 210 205 190 186 215 223 206 203 208 182 215 235 209 229 218 218 244 240 252 200 177 162 259 316 266 279 295 308 300 287 278 271 265 245 252
191 196 200 200 199 196 195 198 193 188 181 197 207 185 205 204 204 213 216 208 214 203 175 204 227 209 203 229 222 252 262 250 221 189 242 209 273 278 294 280 267 271 267 264 260 260 269
199 198 199 201 201 197 194 194 195 192 184 196 205 204 207 214 178 210 212 218 218 204 202 204 205 230 233 234 294 327 234 333 286 265 265 275 261 249 269 266 295 284 260 249 256 264 260
197 201 202 202 201 199 198 196 195 195 196 191 202 197 224 208 211 199 211 216 211 222 224 218 219 216 209 167 124 201 251 255 256 250 249 237 234 254 257 278 245 242 306 337 302 294 295
198 199 200 199 201 200 200 198 197 198 201 202 197 205 217 223 214 219 211 207 219 193 221 204 196 239 174 162 196 231 225 247 241 240 232 227 247 247 242 236 265 275 271 265 266 284 46
200 199 199 199 199 198 199 198 199 200 202 206 199 191 232 227 216 223 209 206 203 211 186 197 173 152 149 170 193 216 216 214 180 140 329 37 244 203 211 246 240 79 136 64 332 266 93
204 204 205 204 203 202 203 203 202 202 204 207 209 199 208 227 238 214 220 214 207 200 211 200 167 184 193 204 217 216 224 243 207 204 167 171 197 221 230 256 266 272 125 154 215 70 122
207 207 207 207 203 201 204 204 203 204 203 205 212 203 207 218 235 222 245 234 232 200 190 184 190 209 188 212 207 194 243 234 238 240 175 185 194 188 215 234 257 233 155 221 76 61 302
207 208 208 208 206 201 201 201 200 200 201 202 210 211 210 211 249 226 225 241 228 251 272 187 200 174 197 204 210 199 218 232 226 246 235 219 223 209 209 219 146 181 322 332 303 300 300